Contract 0xf27a6c72398eb7e25543d19fda370b7083474735

Txn Hash Method
Block
From
To
Value [Txn Fee]
0x840cab57bd850e58f0de9792be3845ea7f837c35ba0ebc0b34cb2be2c09c3952Transfer From24180022022-12-01 18:33:421 hr 50 mins ago0x4382f8baa10b95099e52b81f696bf488d6a1ede3 IN  0xf27a6c72398eb7e25543d19fda370b70834747350 GLMR0.006337051
0xf73b77a7d90b07bdd797e6676451e8b2d03fd342dfe91292fe075d110ba399b2Set Approval For...24165162022-12-01 13:30:426 hrs 53 mins ago0xae08eba835fc6c2b9726b31c7e248171457cc44a IN  0xf27a6c72398eb7e25543d19fda370b70834747350 GLMR0.004972282
0x6ed0bfb37052db3ff6ec3c774a2665f50370c005e4b29d5dd329171a5bd02ab2Transfer From24164672022-12-01 13:20:547 hrs 3 mins ago0xf8340c4d26d3787207133946e5a31f2ff4484df5 IN  0xf27a6c72398eb7e25543d19fda370b70834747350 GLMR0.006337051
0x8bcc600cdced60aaba112dc3ff4315a254a72f53409d072d6f6a8a1d5b9dee6bSet Approval For...24120352022-11-30 22:20:3622 hrs 3 mins ago0x50cbf1478b00fe7713b882cf5ae1311d452bde8f IN  0xf27a6c72398eb7e25543d19fda370b70834747350 GLMR0.004972282
0x41b63febcda1b4f7cc380570068b0dca3579443d5e52ece122fcf1b3eed363ddTransfer From24119792022-11-30 22:09:1222 hrs 14 mins ago0x01a6d2c5cfecc2b771304cd5af70cfb58376942d IN  0xf27a6c72398eb7e25543d19fda370b70834747350 GLMR0.006335833
0x606dfffedb78e740135f0f5379d28e038d3cec77a5adcf97b0cf3830af1e304aSet Approval For...24107682022-11-30 17:59:241 day 2 hrs ago0x3cc47738fe7fc2587914d63420caf37cce129a02 IN  0xf27a6c72398eb7e25543d19fda370b70834747350 GLMR0.002970237462
0xf34e83435aae77756a94520a2f0c00eb2866b29307be71b7c53b96398d16c490Set Approval For...24107682022-11-30 17:59:241 day 2 hrs ago0x3cc47738fe7fc2587914d63420caf37cce129a02 IN  0xf27a6c72398eb7e25543d19fda370b70834747350 GLMR0.002970237462
0x190abe1b680929ca674e7fe440bbb7743d3917cf2c7b3bacf6cf1d57a0cd5d04Set Approval For...24107082022-11-30 17:46:181 day 2 hrs ago0x3c4059b352d406e5d2bb31520a2b09b0c2a65e65 IN  0xf27a6c72398eb7e25543d19fda370b70834747350 GLMR0.004972282
0xba8cf27b8f096c90a3b6a0e76580d4d904b4815b402bea099b0bac7997c24d8cSet Approval For...24096642022-11-30 14:06:421 day 6 hrs ago0xbf4975bea1cabdfa69020d6a317877962ea3fc25 IN  0xf27a6c72398eb7e25543d19fda370b70834747350 GLMR0.004972282
0xbdf7393e9d72ea5d7204d45999fc502cbbcb666baee63c0762178ecec75b9edcSet Approval For...24093452022-11-30 13:00:481 day 7 hrs ago0xc8f4b05286fcb52f1243581a935ffe6604c2c0f3 IN  0xf27a6c72398eb7e25543d19fda370b70834747350 GLMR0.004972282
0x3dd1361ffcd5de85381c264ffbf6c4472fedf05fab3014f27266b80b037824e0Transfer From24091632022-11-30 12:23:541 day 8 hrs ago0x26ce8f32260f05e91faaf4f26569703cf5c52373 IN  0xf27a6c72398eb7e25543d19fda370b70834747350 GLMR0.004624068
0x2d3d6109dae3214cf9629c945e248987622d3b0377c6800f5658eb78e8ef818dTransfer From24091522022-11-30 12:21:361 day 8 hrs ago0x26ce8f32260f05e91faaf4f26569703cf5c52373 IN  0xf27a6c72398eb7e25543d19fda370b70834747350 GLMR0.005113668
0x8e7aa7a8d816522082f10fd9e9fef1504946c820443d76d77c1f7f84d679379eTransfer From24091462022-11-30 12:20:241 day 8 hrs ago0x26ce8f32260f05e91faaf4f26569703cf5c52373 IN  0xf27a6c72398eb7e25543d19fda370b70834747350 GLMR0.005113668
0x9a300dd63adeb6444eb3d9c63264e0fce3fb50aa09b029798a3b61143ef591cdTransfer From24091412022-11-30 12:19:241 day 8 hrs ago0x26ce8f32260f05e91faaf4f26569703cf5c52373 IN  0xf27a6c72398eb7e25543d19fda370b70834747350 GLMR0.005113668
0x3ff05242b80af0a1e980e2c8619f66ae38818a45bb6f6010e79d4baba5490381Transfer From24091312022-11-30 12:17:181 day 8 hrs ago0x26ce8f32260f05e91faaf4f26569703cf5c52373 IN  0xf27a6c72398eb7e25543d19fda370b70834747350 GLMR0.005113668
0xa7535101c532ac74599d60bded75dc1bc7279a9d88e6ad8ce57867ed68e5edcfTransfer From24091252022-11-30 12:16:061 day 8 hrs ago0x26ce8f32260f05e91faaf4f26569703cf5c52373 IN  0xf27a6c72398eb7e25543d19fda370b70834747350 GLMR0.005113668
0x6436db335f8af12bfca607cb17580becdd4e1955d4488d23748404ddc89b1491Transfer From24091142022-11-30 12:13:541 day 8 hrs ago0x26ce8f32260f05e91faaf4f26569703cf5c52373 IN  0xf27a6c72398eb7e25543d19fda370b70834747350 GLMR0.006857868
0x0080a1d9fce7fa7ec2c48385a10b77f7ae750c84df7e150093bc902587f3113bSet Approval For...24017862022-11-29 11:28:242 days 8 hrs ago0x8899d071f0a664b8a126501bbb214a4e579ee244 IN  0xf27a6c72398eb7e25543d19fda370b70834747350 GLMR0.004972282
0x15b0930b1ac3d90f8124e5826998f1817db159a53ddc68104e9ae0e114b58fb7Transfer From23974552022-11-28 20:51:362 days 23 hrs ago0x6bfe623aa0db4e9434faffd6ba52bd403309f9e0 IN  0xf27a6c72398eb7e25543d19fda370b70834747350 GLMR0.006337051
0x37626f5e7c48786cc80bf965c7d64d70ac89a7629344bda30fc5a329c4bacd50Transfer From23893182022-11-27 17:20:124 days 3 hrs ago0x7fff6d57456b97a4cbb7decff4523285b698409d IN  0xf27a6c72398eb7e25543d19fda370b70834747350 GLMR0.006335833
0xe04090e7e63ea0ba784a470b3b47d65845a3cfbcf53da1cbfd09ec33d3a8be8fSet Approval For...23889992022-11-27 16:15:424 days 4 hrs ago0xe0e7480347e6cc9b40d6c1c40fdbebe121d7f0e6 IN  0xf27a6c72398eb7e25543d19fda370b70834747350 GLMR0.002952432
0xbd21523cf293860b316074ce6c4fbebe4c8ced410fb1719c250fa5a416051136Set Approval For...23889972022-11-27 16:15:184 days 4 hrs ago0xe0e7480347e6cc9b40d6c1c40fdbebe121d7f0e6 IN  0xf27a6c72398eb7e25543d19fda370b70834747350 GLMR0.004972282
0xc868d19d17743adf54926c5a2defd31da01813c51701924d82b1cec53a38a03bSet Approval For...23889942022-11-27 16:14:424 days 4 hrs ago0x58811b51d529b11a2532361cd1464754bdd5ba5f IN  0xf27a6c72398eb7e25543d19fda370b70834747350 GLMR0.004972282
0xb7d8d02e78abf11fb3303a2b61c5823396d9639ca46915d32785bb2a4ded663aSet Approval For...23888502022-11-27 15:45:304 days 4 hrs ago0x327c510f67507c30d1c8e5662ed4306223614ebf IN  0xf27a6c72398eb7e25543d19fda370b70834747350 GLMR0.004972282
0x50439296409ffd580fcff3fd40c61e52d489d5e81f28c3c96d03605f81d251b9Set Approval For...23888352022-11-27 15:42:244 days 4 hrs ago0xe17f36b1d5fc53d0a345b9778623f5d22623a26f IN  0xf27a6c72398eb7e25543d19fda370b70834747350 GLMR0.004972282
[ Download CSV Export 
Latest 1 internal transaction
Parent Txn Hash Block From To Value
0x9371d19709df6e526c046bbd15b2c9843324a9440a257029833e9e9c3b431e8717775312022-09-01 18:03:2491 days 2 hrs ago 0x6be3f97e53ce016f9ad16b8c3dedf03ecc6a4ed7  Contract Creation0 GLMR
[ Download CSV Export 
Loading
Are you the contract creator? Verify and Publish your contract source code today!
This contract was created by the contract code at 0x6be3f97e53ce016f9ad16b8c3dedf03ecc6a4ed7
Note: We also found another 3 contracts with exact matching byte codes

Decompile ByteCode Is this a proxy?
0x363d3d373d3d3d363d7374cc11c9e19548cb3dcceb340e472b93db576d4b5af43d82803e903d91602b57fd5bf3 
Block Transaction Gas Used Reward
Age Block Fee Address BC Fee Address Voting Power Jailed Incoming
Block Uncle Number Difficulty Gas Used Reward
Loading
Make sure to use the "Vote Down" button for any spammy posts, and the "Vote Up" for interesting conversations.